Time,TemperatureF,DewpointF,PressureIn,WindDirection,WindDirectionDegrees,WindSpeedMPH,WindSpeedGustMPH,Humidity,HourlyPrecipIn,Conditions,Clouds,dailyrainin,SoftwareType,DateUTC
2013-02-10 00:01:00,22.0,-99.9,-100.00,North,349,34.0,44.0,-999,-99.99,,,-99.99,,2013-02-10 05:01:00,
2013-02-10 00:11:00,22.0,-99.9,-100.00,North,349,34.0,44.0,-999,-99.99,,,-99.99,,2013-02-10 05:11:00,
2013-02-10 00:23:00,22.0,-99.9,-100.00,North,349,34.0,44.0,-999,-99.99,,,-99.99,,2013-02-10 05:23:00,
2013-02-10 00:30:00,21.0,-99.9,-100.00,North,349,34.0,41.0,-999,-99.99,,,-99.99,,2013-02-10 05:30:00,
2013-02-10 00:42:00,21.0,-99.9,-100.00,NNW,348,33.0,42.0,-999,-99.99,,,-99.99,,2013-02-10 05:42:00,
2013-02-10 00:53:00,21.0,-99.9,-100.00,NNW,348,33.0,42.0,-999,-99.99,,,-99.99,,2013-02-10 05:53:00,
2013-02-10 01:02:00,21.0,-99.9,-100.00,North,349,34.0,41.0,-999,-99.99,,,-99.99,,2013-02-10 06:02:00,
2013-02-10 01:11:00,21.0,-99.9,-100.00,North,349,34.0,41.0,-999,-99.99,,,-99.99,,2013-02-10 06:11:00,
2013-02-10 01:22:00,21.0,-99.9,-100.00,North,349,34.0,41.0,-999,-99.99,,,-99.99,,2013-02-10 06:22:00,
2013-02-10 01:30:00,21.0,-99.9,-100.00,NNW,346,31.0,37.0,-999,-99.99,,,-99.99,,2013-02-10 06:30:00,
2013-02-10 01:42:00,21.0,-99.9,-100.00,NNW,348,33.0,39.0,-999,-99.99,,,-99.99,,2013-02-10 06:42:00,
2013-02-10 01:52:00,21.0,-99.9,-100.00,NNW,348,33.0,39.0,-999,-99.99,,,-99.99,,2013-02-10 06:52:00,
2013-02-10 02:01:00,21.0,-99.9,-100.00,NNW,346,31.0,37.0,-999,-99.99,,,-99.99,,2013-02-10 07:01:00,
2013-02-10 02:11:00,21.0,-99.9,-100.00,NNW,346,31.0,37.0,-999,-99.99,,,-99.99,,2013-02-10 07:11:00,
2013-02-10 02:21:00,21.0,-99.9,-100.00,NNW,346,31.0,37.0,-999,-99.99,,,-99.99,,2013-02-10 07:21:00,
2013-02-10 02:30:00,21.0,-99.9,-100.00,NNW,348,31.0,38.0,-999,-99.99,,,-99.99,,2013-02-10 07:30:00,
2013-02-10 02:42:00,21.0,-99.9,-100.00,NNW,348,31.0,38.0,-999,-99.99,,,-99.99,,2013-02-10 07:42:00,
2013-02-10 02:52:00,21.0,-99.9,-100.00,NNW,348,31.0,38.0,-999,-99.99,,,-99.99,,2013-02-10 07:52:00,
2013-02-10 03:01:00,21.0,-99.9,-100.00,NNW,348,31.0,38.0,-999,-99.99,,,-99.99,,2013-02-10 08:01:00,
2013-02-10 03:11:00,21.0,-99.9,-100.00,NNW,348,31.0,38.0,-999,-99.99,,,-99.99,,2013-02-10 08:11:00,
2013-02-10 03:22:00,21.0,-99.9,-100.00,NNW,348,31.0,38.0,-999,-99.99,,,-99.99,,2013-02-10 08:22:00,
2013-02-10 03:30:00,20.0,-99.9,-100.00,NNW,348,29.0,34.0,-999,-99.99,,,-99.99,,2013-02-10 08:30:00,
2013-02-10 03:43:00,21.0,-99.9,-100.00,NNW,342,29.0,36.0,-999,-99.99,,,-99.99,,2013-02-10 08:43:00,
2013-02-10 03:52:00,21.0,-99.9,-100.00,NNW,342,29.0,36.0,-999,-99.99,,,-99.99,,2013-02-10 08:52:00,
2013-02-10 04:02:00,20.0,-99.9,-100.00,NNW,348,29.0,34.0,-999,-99.99,,,-99.99,,2013-02-10 09:02:00,
2013-02-10 04:11:00,20.0,-99.9,-100.00,NNW,348,29.0,34.0,-999,-99.99,,,-99.99,,2013-02-10 09:11:00,
2013-02-10 04:22:00,20.0,-99.9,-100.00,NNW,348,29.0,34.0,-999,-99.99,,,-99.99,,2013-02-10 09:22:00,
2013-02-10 04:30:00,20.0,-99.9,-100.00,NNW,344,27.0,32.0,-999,-99.99,,,-99.99,,2013-02-10 09:30:00,
2013-02-10 04:42:00,20.0,-99.9,-100.00,North,349,29.0,34.0,-999,-99.99,,,-99.99,,2013-02-10 09:42:00,
2013-02-10 04:52:00,20.0,-99.9,-100.00,North,349,29.0,34.0,-999,-99.99,,,-99.99,,2013-02-10 09:52:00,
2013-02-10 05:02:00,20.0,-99.9,-100.00,NNW,344,27.0,32.0,-999,-99.99,,,-99.99,,2013-02-10 10:02:00,
2013-02-10 05:12:00,20.0,-99.9,-100.00,NNW,344,27.0,32.0,-999,-99.99,,,-99.99,,2013-02-10 10:12:00,
2013-02-10 05:21:00,20.0,-99.9,-100.00,NNW,344,27.0,32.0,-999,-99.99,,,-99.99,,2013-02-10 10:21:00,
2013-02-10 05:30:00,20.0,-99.9,-100.00,NNW,344,26.0,33.0,-999,-99.99,,,-99.99,,2013-02-10 10:30:00,
2013-02-10 05:42:00,20.0,-99.9,-100.00,NNW,346,26.0,34.0,-999,-99.99,,,-99.99,,2013-02-10 10:42:00,
2013-02-10 05:52:00,20.0,-99.9,-100.00,NNW,346,26.0,34.0,-999,-99.99,,,-99.99,,2013-02-10 10:52:00,
2013-02-10 06:01:00,20.0,-99.9,-100.00,NNW,344,26.0,33.0,-999,-99.99,,,-99.99,,2013-02-10 11:01:00,
2013-02-10 06:11:00,20.0,-99.9,-100.00,NNW,344,26.0,33.0,-999,-99.99,,,-99.99,,2013-02-10 11:11:00,
2013-02-10 06:22:00,20.0,-99.9,-100.00,NNW,344,26.0,33.0,-999,-99.99,,,-99.99,,2013-02-10 11:22:00,
2013-02-10 06:30:00,20.0,-99.9,30.09,NNW,348,28.0,36.0,-999,-99.99,,,-99.99,,2013-02-10 11:30:00,
2013-02-10 06:42:00,20.0,-99.9,30.08,NNW,340,29.0,37.0,-999,-99.99,,,-99.99,,2013-02-10 11:42:00,
2013-02-10 06:52:00,20.0,-99.9,30.08,NNW,340,29.0,37.0,-999,-99.99,,,-99.99,,2013-02-10 11:52:00,
2013-02-10 07:02:00,20.0,-99.9,30.09,NNW,348,28.0,36.0,-999,-99.99,,,-99.99,,2013-02-10 12:02:00,
2013-02-10 07:12:00,20.0,-99.9,30.09,NNW,348,28.0,36.0,-999,-99.99,,,-99.99,,2013-02-10 12:12:00,
2013-02-10 07:22:00,20.0,-99.9,30.09,NNW,348,28.0,36.0,-999,-99.99,,,-99.99,,2013-02-10 12:22:00,
2013-02-10 07:30:00,21.0,-99.9,30.11,North,349,27.0,33.0,-999,-99.99,,,-99.99,,2013-02-10 12:30:00,
2013-02-10 07:42:00,20.0,-99.9,30.09,NNW,344,28.0,35.0,-999,-99.99,,,-99.99,,2013-02-10 12:42:00,
2013-02-10 07:52:00,20.0,-99.9,30.09,NNW,344,28.0,35.0,-999,-99.99,,,-99.99,,2013-02-10 12:52:00,
2013-02-10 08:02:00,21.0,-99.9,30.11,North,349,27.0,33.0,-999,-99.99,,,-99.99,,2013-02-10 13:02:00,
2013-02-10 08:12:00,21.0,-99.9,30.11,North,349,27.0,33.0,-999,-99.99,,,-99.99,,2013-02-10 13:12:00,
2013-02-10 08:21:00,21.0,-99.9,30.11,North,349,27.0,33.0,-999,-99.99,,,-99.99,,2013-02-10 13:21:00,
2013-02-10 08:30:00,22.0,-99.9,30.13,North,351,27.0,35.0,-999,-99.99,,,-99.99,,2013-02-10 13:30:00,
2013-02-10 08:42:00,21.0,-99.9,30.11,NNW,345,26.0,36.0,-999,-99.99,,,-99.99,,2013-02-10 13:42:00,
2013-02-10 08:52:00,21.0,-99.9,30.11,NNW,345,26.0,36.0,-999,-99.99,,,-99.99,,2013-02-10 13:52:00,
2013-02-10 09:02:00,22.0,-99.9,30.13,North,351,27.0,35.0,-999,-99.99,,,-99.99,,2013-02-10 14:02:00,
2013-02-10 09:11:00,22.0,-99.9,30.13,North,351,27.0,35.0,-999,-99.99,,,-99.99,,2013-02-10 14:11:00,
2013-02-10 09:22:00,22.0,-99.9,30.13,North,351,27.0,35.0,-999,-99.99,,,-99.99,,2013-02-10 14:22:00,
2013-02-10 09:30:00,22.0,-99.9,30.16,NNW,345,28.0,33.0,-999,-99.99,,,-99.99,,2013-02-10 14:30:00,
2013-02-10 09:42:00,22.0,-99.9,30.14,NNW,347,28.0,35.0,-999,-99.99,,,-99.99,,2013-02-10 14:42:00,
2013-02-10 09:52:00,22.0,-99.9,30.14,NNW,347,28.0,35.0,-999,-99.99,,,-99.99,,2013-02-10 14:52:00,
2013-02-10 10:02:00,22.0,-99.9,30.16,NNW,345,28.0,33.0,-999,-99.99,,,-99.99,,2013-02-10 15:02:00,
2013-02-10 10:12:00,22.0,-99.9,30.16,NNW,345,28.0,33.0,-999,-99.99,,,-99.99,,2013-02-10 15:12:00,
2013-02-10 10:22:00,22.0,-99.9,30.16,NNW,345,28.0,33.0,-999,-99.99,,,-99.99,,2013-02-10 15:22:00,
2013-02-10 10:30:00,23.0,-99.9,30.17,NNW,336,24.0,30.0,-999,-99.99,,,-99.99,,2013-02-10 15:30:00,
2013-02-10 10:42:00,23.0,-99.9,30.17,NNW,343,26.0,32.0,-999,-99.99,,,-99.99,,2013-02-10 15:42:00,
2013-02-10 10:52:00,23.0,-99.9,30.17,NNW,343,26.0,32.0,-999,-99.99,,,-99.99,,2013-02-10 15:52:00,
2013-02-10 11:02:00,23.0,-99.9,30.17,NNW,336,24.0,30.0,-999,-99.99,,,-99.99,,2013-02-10 16:02:00,
2013-02-10 11:12:00,23.0,-99.9,30.17,NNW,336,24.0,30.0,-999,-99.99,,,-99.99,,2013-02-10 16:12:00,
2013-02-10 11:22:00,23.0,-99.9,30.17,NNW,336,24.0,30.0,-999,-99.99,,,-99.99,,2013-02-10 16:22:00,
2013-02-10 11:30:00,24.0,-99.9,30.17,NNW,340,23.0,26.0,-999,-99.99,,,-99.99,,2013-02-10 16:30:00,
2013-02-10 11:42:00,24.0,-99.9,30.18,NNW,338,23.0,29.0,-999,-99.99,,,-99.99,,2013-02-10 16:42:00,
2013-02-10 11:52:00,24.0,-99.9,30.18,NNW,338,23.0,29.0,-999,-99.99,,,-99.99,,2013-02-10 16:52:00,
2013-02-10 12:02:00,24.0,-99.9,30.17,NNW,340,23.0,26.0,-999,-99.99,,,-99.99,,2013-02-10 17:02:00,
2013-02-10 12:12:00,24.0,-99.9,30.17,NNW,340,23.0,26.0,-999,-99.99,,,-99.99,,2013-02-10 17:12:00,
2013-02-10 12:22:00,24.0,-99.9,30.17,NNW,340,23.0,26.0,-999,-99.99,,,-99.99,,2013-02-10 17:22:00,
2013-02-10 12:30:00,26.0,-99.9,30.18,NNW,332,21.0,26.0,-999,-99.99,,,-99.99,,2013-02-10 17:30:00,
2013-02-10 12:42:00,25.0,-99.9,30.17,NNW,334,21.0,26.0,-999,-99.99,,,-99.99,,2013-02-10 17:42:00,
2013-02-10 12:53:00,25.0,-99.9,30.17,NNW,334,21.0,26.0,-999,-99.99,,,-99.99,,2013-02-10 17:53:00,
2013-02-10 13:00:00,27.0,-99.9,30.18,NNW,334,20.0,26.0,-999,-99.99,,,-99.99,,2013-02-10 18:00:00,
2013-02-10 13:02:00,26.0,-99.9,30.18,NNW,332,21.0,26.0,-999,-99.99,,,-99.99,,2013-02-10 18:02:00,
2013-02-10 13:12:00,26.0,-99.9,30.18,NNW,332,21.0,26.0,-999,-99.99,,,-99.99,,2013-02-10 18:12:00,
2013-02-10 13:22:00,26.0,-99.9,30.18,NNW,332,21.0,26.0,-999,-99.99,,,-99.99,,2013-02-10 18:22:00,
2013-02-10 13:42:00,27.0,-99.9,30.18,NNW,334,20.0,26.0,-999,-99.99,,,-99.99,,2013-02-10 18:42:00,
2013-02-10 13:52:00,27.0,-99.9,30.18,NNW,334,20.0,26.0,-999,-99.99,,,-99.99,,2013-02-10 18:52:00,
2013-02-10 14:30:00,28.0,-99.9,30.19,NW,321,18.0,27.0,-999,-99.99,,,-99.99,,2013-02-10 19:30:00,
2013-02-10 14:43:00,28.0,-99.9,30.20,NW,308,17.0,24.0,-999,-99.99,,,-99.99,,2013-02-10 19:43:00,
2013-02-10 14:52:00,28.0,-99.9,30.20,NW,308,17.0,24.0,-999,-99.99,,,-99.99,,2013-02-10 19:52:00,
2013-02-10 15:00:00,29.0,-99.9,30.20,NW,321,17.0,23.0,-999,-99.99,,,-99.99,,2013-02-10 20:00:00,
2013-02-10 15:02:00,28.0,-99.9,30.19,NW,321,18.0,27.0,-999,-99.99,,,-99.99,,2013-02-10 20:02:00,
2013-02-10 15:12:00,28.0,-99.9,30.19,NW,321,18.0,27.0,-999,-99.99,,,-99.99,,2013-02-10 20:12:00,
2013-02-10 15:22:00,28.0,-99.9,30.19,NW,321,18.0,27.0,-999,-99.99,,,-99.99,,2013-02-10 20:22:00,
2013-02-10 15:42:00,29.0,-99.9,30.20,NW,321,17.0,23.0,-999,-99.99,,,-99.99,,2013-02-10 20:42:00,
2013-02-10 15:53:00,29.0,-99.9,30.20,NW,321,17.0,23.0,-999,-99.99,,,-99.99,,2013-02-10 20:53:00,
2013-02-10 16:00:00,29.0,-99.9,30.22,NW,312,16.0,20.0,-999,-99.99,,,-99.99,,2013-02-10 21:00:00,
2013-02-10 16:42:00,29.0,-99.9,30.22,NW,312,16.0,20.0,-999,-99.99,,,-99.99,,2013-02-10 21:42:00,
2013-02-10 16:52:00,29.0,-99.9,30.22,NW,312,16.0,20.0,-999,-99.99,,,-99.99,,2013-02-10 21:52:00,
2013-02-10 17:30:00,29.0,-99.9,30.26,NW,320,17.0,24.0,-999,-99.99,,,-99.99,,2013-02-10 22:30:00,
2013-02-10 17:42:00,29.0,-99.9,30.24,NW,320,19.0,24.0,-999,-99.99,,,-99.99,,2013-02-10 22:42:00,
2013-02-10 17:53:00,29.0,-99.9,30.24,NW,320,19.0,24.0,-999,-99.99,,,-99.99,,2013-02-10 22:53:00,
2013-02-10 18:00:00,29.0,-99.9,30.27,NW,322,18.0,23.0,-999,-99.99,,,-99.99,,2013-02-10 23:00:00,
2013-02-10 18:02:00,29.0,-99.9,30.26,NW,320,17.0,24.0,-999,-99.99,,,-99.99,,2013-02-10 23:02:00,
2013-02-10 18:12:00,29.0,-99.9,30.26,NW,320,17.0,24.0,-999,-99.99,,,-99.99,,2013-02-10 23:12:00,
2013-02-10 18:22:00,29.0,-99.9,30.26,NW,320,17.0,24.0,-999,-99.99,,,-99.99,,2013-02-10 23:22:00,
2013-02-10 18:42:00,29.0,-99.9,30.27,NW,322,18.0,23.0,-999,-99.99,,,-99.99,,2013-02-10 23:42:00,
2013-02-10 18:52:00,29.0,-99.9,30.27,NW,322,18.0,23.0,-999,-99.99,,,-99.99,,2013-02-10 23:52:00,
2013-02-10 19:30:00,29.0,-99.9,30.28,NNW,334,20.0,24.0,-999,-99.99,,,-99.99,,2013-02-11 00:30:00,
2013-02-10 19:42:00,29.0,-99.9,30.28,NW,320,16.0,21.0,-999,-99.99,,,-99.99,,2013-02-11 00:42:00,
2013-02-10 19:52:00,29.0,-99.9,30.28,NW,320,16.0,21.0,-999,-99.99,,,-99.99,,2013-02-11 00:52:00,
2013-02-10 20:02:00,29.0,-99.9,30.28,NNW,334,20.0,24.0,-999,-99.99,,,-99.99,,2013-02-11 01:02:00,
2013-02-10 20:11:00,29.0,-99.9,30.28,NNW,334,20.0,24.0,-999,-99.99,,,-99.99,,2013-02-11 01:11:00,
2013-02-10 20:22:00,29.0,-99.9,30.28,NNW,334,20.0,24.0,-999,-99.99,,,-99.99,,2013-02-11 01:22:00,
2013-02-10 20:30:00,29.0,-99.9,30.29,NNW,339,16.0,20.0,-999,-99.99,,,-99.99,,2013-02-11 01:30:00,
2013-02-10 20:42:00,29.0,-99.9,30.29,NNW,331,18.0,23.0,-999,-99.99,,,-99.99,,2013-02-11 01:42:00,
2013-02-10 20:52:00,29.0,-99.9,30.29,NNW,331,18.0,23.0,-999,-99.99,,,-99.99,,2013-02-11 01:52:00,
2013-02-10 21:01:00,29.0,-99.9,30.29,NNW,339,16.0,20.0,-999,-99.99,,,-99.99,,2013-02-11 02:01:00,
2013-02-10 21:11:00,29.0,-99.9,30.29,NNW,339,16.0,20.0,-999,-99.99,,,-99.99,,2013-02-11 02:11:00,
2013-02-10 21:21:00,29.0,-99.9,30.29,NNW,339,16.0,20.0,-999,-99.99,,,-99.99,,2013-02-11 02:21:00,
2013-02-10 21:30:00,29.0,-99.9,30.27,NNW,335,15.0,18.0,-999,-99.99,,,-99.99,,2013-02-11 02:30:00,
2013-02-10 21:42:00,29.0,-99.9,30.28,North,355,16.0,19.0,-999,-99.99,,,-99.99,,2013-02-11 02:42:00,
2013-02-10 21:52:00,29.0,-99.9,30.28,North,355,16.0,19.0,-999,-99.99,,,-99.99,,2013-02-11 02:52:00,
2013-02-10 22:02:00,29.0,-99.9,30.27,NNW,335,15.0,18.0,-999,-99.99,,,-99.99,,2013-02-11 03:02:00,
2013-02-10 22:11:00,29.0,-99.9,30.27,NNW,335,15.0,18.0,-999,-99.99,,,-99.99,,2013-02-11 03:11:00,
2013-02-10 22:22:00,29.0,-99.9,30.27,NNW,335,15.0,18.0,-999,-99.99,,,-99.99,,2013-02-11 03:22:00,
2013-02-10 22:30:00,28.0,-99.9,30.25,North,350,11.0,14.0,-999,-99.99,,,-99.99,,2013-02-11 03:30:00,
2013-02-10 22:42:00,28.0,-99.9,30.26,NNW,338,13.0,16.0,-999,-99.99,,,-99.99,,2013-02-11 03:42:00,
2013-02-10 22:52:00,28.0,-99.9,30.26,NNW,338,13.0,16.0,-999,-99.99,,,-99.99,,2013-02-11 03:52:00,
2013-02-10 23:02:00,28.0,-99.9,30.25,North,350,11.0,14.0,-999,-99.99,,,-99.99,,2013-02-11 04:02:00,
2013-02-10 23:11:00,28.0,-99.9,30.25,North,350,11.0,14.0,-999,-99.99,,,-99.99,,2013-02-11 04:11:00,
2013-02-10 23:22:00,28.0,-99.9,30.25,North,350,11.0,14.0,-999,-99.99,,,-99.99,,2013-02-11 04:22:00,
2013-02-10 23:30:00,28.0,-99.9,30.23,NW,304,4.0,7.0,-999,-99.99,,,-99.99,,2013-02-11 04:30:00,
2013-02-10 23:42:00,28.0,-99.9,30.24,North,352,8.0,10.0,-999,-99.99,,,-99.99,,2013-02-11 04:42:00,
2013-02-10 23:52:00,28.0,-99.9,30.24,North,352,8.0,10.0,-999,-99.99,,,-99.99,,2013-02-11 04:52:00,